Hourly Data Report for May 15, 2012

All times are specified in Local Standard Time (LST). Add 1 hour to adjust for Daylight Saving Time where and when it is observed.

HAMILTON A
ONTARIO

43°10'25.000" N
79°56'06.000" W
237.70 m
6153193
71263
YHM

Download Data

Hourly Data (May 2012)
Hourly Data Report for May 15, 2012
Temp Definition
°C
Dew Point Temp Definition
°C
Rel Hum Definition
%
Wind Dir Definition
10's deg

Wind Spd Definition
km/h
Visibility Definition
km
Stn Press Definition
kPa
Hmdx Definition


Wind Chill Definition


Weather Definition


TIME
00:00 12.4 8.5 77 21 9 10.0 98.80     LegendNANA
01:00 11.8 8.7 81 23 6 10.0 98.78     Mainly Clear
02:00 11.4 7.9 79 27 5 10.0 98.73     LegendNANA
03:00 10.1 7.5 84 24 5 10.0 98.70     LegendNANA
04:00 8.9 7.4 90 25 4 10.0 98.70     Mainly Clear
05:00 7.8 7.2 96 25 7 10.0 98.70     LegendNANA
06:00 8.1 7.2 94 27 8 10.0 98.72     LegendNANA
07:00 12.3 9.3 82 24 4 10.0 98.73     Mainly Clear
08:00 15.9 8.0 59 26 7 10.0 98.75     LegendNANA
09:00 19.6 8.7 49 23 6 10.0 98.73     LegendNANA
10:00 21.1 5.6 36 22 11 10.0 98.73     Clear
11:00 22.5 6.9 36 24 16 10.0 98.70     LegendNANA
12:00 22.8 3.5 28 26 10 10.0 98.65     LegendNANA
13:00 24.0 3.5 26 18 11 10.0 98.58     Clear
14:00 24.0 6.5 32 19 30 10.0 98.51     LegendNANA
15:00 23.8 5.9 31 17 26 10.0 98.45     LegendNANA
16:00 23.4 5.0 30 18 31 10.0 98.40     Mainly Clear
17:00 22.6 5.3 32 19 28 10.0 98.39     LegendNANA
18:00 21.2 4.0 32 20 29 10.0 98.36     LegendNANA
19:00 19.7 3.6 34 20 24 10.0 98.36     Mainly Clear
20:00 16.9 4.7 44 20 13 10.0 98.36     LegendNANA
21:00 15.9 4.7 47 17 13 10.0 98.34     LegendNANA
22:00 14.5 6.9 60 18 13 10.0 98.31     Mainly Clear
23:00 13.4 8.1 70 18 11 10.0 98.26     LegendNANA

Notes on Data Quality.

Legend

  • E = Estimated
  • M = Missing
  • NA = Not Available
Date modified: